www.pogodaiklimat.ru

Погода и климат >> Архив погоды >> Узбекистан >> Гузар


ПОГОДА в Гузаре

  • Прогноз погоды в Гузаре
  • Монитор погоды в Гузаре

АРХИВ ПОГОДЫ в Гузаре

Время (UTC), дата Ветер
(напр.,м/с)
 
Видим.   Явления Облачность Т
(С)
Тd
(С)
f
(%)
Тe
(С)
Тes
(С)
Комфортность P
(гПа)
Po
(гПа)
Тmin
(С)
Tmax
(С)
R
(мм)
R24
(мм)
S
(см)
12 11.09 З 1 50 км ясно +28.1 +17.1 51 +32 +35 душно 1016.7 958.9
15 11.09 Ю 1 н/о ясно +22.7 +12.3 52 +25 +25 комфорт 1017.6 958.6 +29.3
21 11.09 Ю 2 н/о ясно +16.7 +8.0 56 +17 +17 1019.6 959.2
03 12.09 Ю 2 50 км ясно +17.1 +8.4 57 +17 +20 1019.0 958.7
06 12.09 ЮЗ 2 50 км ясно +28.1 +18.1 55 +33 +45 очень
душно
1015.1 957.4
09 12.09 ЮЗ 3 50 км ясно +30.1 +19.0 51 +35 +46 очень
душно
1014.7 957.4
12 12.09 З 2 50 км ясно +28.7 +17.0 49 +32 +35 душно 1014.5 956.9
15 12.09 З 1 н/о ясно +22.7 +12.3 52 +25 +25 комфорт 1015.3 956.4 +30.5
18 12.09 ЮВ 1 н/о ясно +18.3 +8.9 54 +20 +20 1016.5 956.5 +30.5
21 12.09 ЮВ 2 н/о ясно +17.7 +8.9 56 +18 +18 1016.1 956.1
00 13.09 ЮВ 2 н/о ясно +17.3 +9.0 58 +18 +18 1016.2 956.1
03 13.09 ЮВ 2 50 км ясно +18.1 +9.4 57 +19 +21 1015.9 956.0
06 13.09 Ю 2 50 км ясно +28.3 +18.4 55 +33 +45 очень
душно
1014.7 957.0
09 13.09 Ю 2 50 км ясно +30.7 +20.0 53 +37 +49 очень
душно
1013.4 956.2
12 13.09 З 2 50 км ясно +31.1 +19.5 50 +37 +39 очень
душно
1012.8 955.7
15 13.09 С 1 н/о ясно +23.1 +12.6 52 +26 +26 жарко 1015.3 956.5 +31.5
18 13.09 Ю 1 н/о ясно +19.1 +9.0 52 +21 +21 комфорт 1016.2 956.5 +31.5
21 13.09 ЮВ 2 н/о 4/0
[Ac lent]
+18.7 +9.2 54 +20 +20 1015.6 955.8
00 14.09 Ю 2 н/о 4/0
[Ac lent]
+18.1 +9.2 56 +19 +19 1015.5 955.6
03 14.09 Ю 2 50 км 4/0 <50 м
[Ac lent]
+19.1 +9.9 55 +20 +22 1015.6 955.9
06 14.09 З 2 20 км 8/8 600 м
[Cb cap Ac lent]
+28.4 +18.3 54 +33 +36 очень
душно
1013.6 956.0
09 14.09 З 3 20 км 8/8 600 м
[Cb cap Ac lent]
+30.2 +18.8 51 +36 +38 очень
душно
1012.8 955.5
12 14.09 СЗ 3 20 км 8/0 <50 м
[Ac lent]
+29.1 +17.3 49 +33 +34 очень
душно
1012.2 954.8
15 14.09 З 2 н/о ясно +23.4 +13.0 52 +26 +26 жарко 1015.0 956.2 +30.5
18 14.09 ЮВ 1 н/о ясно +17.9 +8.4 54 +19 +19 1016.2 956.2 +30.5
21 14.09 В 1 н/о 3/0
[Ac trans]
+16.1 +6.8 54 +17 +17 1018.1 957.6
00 15.09 В 2 н/о 8/0
[Ac lent]
+16.2 +7.1 55 +16 +16 1017.8 957.4
03 15.09 ЮВ 2 50 км 6/0 <50 м
[Ac trans]
+17.8 +9.0 56 +18 +20 1017.9 957.8
06 15.09 Ю 2 50 км ясно +26.2 +16.1 54 +30 +41 душно 1018.1 959.7
09 15.09 ЮВ 3 50 км 4/0 <50 м
[Ac trans]
+27.8 +16.9 51 +31 +39 душно 1017.3 959.4
12 15.09 Ю 2 50 км 3/0 <50 м
[Ac trans]
+27.1 +15.7 50 +30 +32 душно 1017.5 959.4
15 15.09 В 1 н/о ясно +22.1 +11.5 51 +24 +24 комфорт 1018.8 959.5 +28.2
18 15.09 Ю 1 н/о ясно +17.1 +7.4 53 +18 +18 1020.4 959.9 +28.2
21 15.09 Ю 1 н/о ясно +15.1 +6.5 56 +16 +16 1021.4 960.7
00 16.09 ЮВ 2 н/о ясно +15.3 +6.7 56 +15 +15 1021.6 960.8
03 16.09 Ю 2 50 км ясно +16.3 +7.3 55 +16 +18 1020.7 960.1
06 16.09 З 2 50 км ясно +25.1 +15.1 54 +28 +39 жарко 1018.8 960.2
09 16.09 З 2 50 км ясно +26.7 +17.1 56 +31 +43 душно 1018.0 959.8
12 16.09 З 2 50 км 3/0 <50 м
[Ci fib]
+26.5 +15.3 50 +29 +31 жарко 1017.6 959.4
15 16.09 З 2 н/о ясно +21.5 +11.0 51 +23 +23 комфорт 1018.7 959.4 +27.1
18 16.09 ЮВ 2 н/о ясно +18.1 +8.2 52 +19 +19 1019.6 959.5 +27.1
00 17.09 ЮВ 2 н/о ясно +14.7 +5.9 56 +15 +15 1020.1 959.2
03 17.09 ЮВ 2 50 км ясно +16.5 +7.6 56 +17 +19 1019.5 959.0
09 17.09 С 3 50 км ясно +28.9 +17.7 51 +33 +43 очень
душно
1016.6 958.8
12 17.09 С 1 50 км ясно +28.5 +17.1 50 +32 +35 душно 1014.6 957.0
15 17.09 штиль 0 н/о ясно +19.3 +8.8 51 +20 +20 1016.0 956.3 +29.3
18 17.09 ЮВ 1 н/о ясно +17.1 +7.1 52 +18 +18 1016.5 956.3 +29.3
21 17.09 Ю 1 н/о ясно +15.7 +6.5 54 +16 +16 1016.4 956.0
03 18.09 ЮВ 1 50 км ясно +19.1 +9.9 55 +21 +23 комфорт 1014.7 955.1

 

Местоположение метеостанции Гузар (Кашкадарьинская область, Узбекистан): широта 38.62 долгота 66.27 высота над уровнем моря 524 м.

В архиве по умолчанию представлена погода в Гузаре за последнюю неделю. Архивные данные за месяц целиком и за предыдущие месяцы, начиная с января 2011 года, Вы можете получить, выбрав интересующий диапазон дат из раскрывающегося списка и нажав кнопку "Ввод!".


*Определитесь, кто Вы:
робот инопланетянин человек

Внимание! Время в таблицах - всемирное. Для получения местного времени необходимо прибавить поправку, которая равна 5 ч.

Смотрите также архив погоды в соседних городах и на ближайших метеорологических станциях:

Погода в Дехканабаде (Сырдарьинская область, Узбекистан) (36 км)
Погода в Карши (Кашкадарьинская область, Узбекистан) (52 км)
Погода в Минчукуре (Кашкадарьинская область, Узбекистан) (57 км)
Погода в Акрабате (Узбекистан) (64 км)
Погода в Шахрисабзе (Кашкадарьинская область, Узбекистан) (68 км)
Погода в Байсуне (Сухрандарьинская область, Узбекистан) (94 км)
Погода в Нурабаде (Самаркандская область, Узбекистан) (111 км)
Погода в Самарканде (Самаркандская область, Узбекистан) (121 км)
Погода на Леднике Северцова (Кашкадарьинская область, Узбекистан) (124 км)
Погода в Койтендаге (Дашогузский велаят, Туркменистан) (124 км)

Пояснения к столбцам:

Ветер - указаны скорость ветра в м/с - средняя за 10 мин, порывы в срок и между сроками (в фигурных скобках) и направление, откуда дует ветер: С - северный, СВ - северо-восточный, В - восточный, ЮВ - юго-восточный, Ю - южный, ЮЗ - юго-западный, З - западный, СЗ - северо-западный.
Видимость - горизонтальная дальность видимости в метрах или километрах. При видимости от 1 до 10 км при отсутствии осадков обычно наблюдается дымка, при ухудшении видимости до 1 км и менее - туман. В сухую погоду видимость может ухудшаться дымом, пылью или мглою.
Явления - указаны атмосферные явления, наблюдавшиеся в срок или в последний час перед сроком; фигурными скобками обозначены явления, наблюдавшиеся между сроками (за 1-3 часа до срока); квадратными скобками обозначены град или гололедные отложения с указанием их диаметра в мм.
Облачность - указаны через наклонную черту общая и нижняя облачность в баллах и высота нижней границы облаков в метрах; квадратными скобками обозначены формы облаков: Ci - перистые, Cs - перисто-слоистые, Cc - перисто-кучевые, Ac - высококучевые, As - высокослоистые, Sc - слоисто-кучевые, Ns - слоисто-дождевые, Cu - кучевые, Cb - кучево-дождевые. Подробнее классификацию облаков см. в Атласе облаков (PDF).
T - Температура воздуха - температура, измеренная на высоте 2 м над землей.
Td - Температура точки росы - температура, при понижении до которой содержащийся в воздухе водяной пар достигнет насыщения.
f - Относительная влажность воздуха - влажноcть воздуха, измеренная на высоте 2 м над землей.
Te - Эффективная температура - температура, которую ощущает одетый по сезону человек в тени. Характеристика душности погоды. При расчете учитывается влияние влажности воздуха и скорости ветра на теплоощущения человека.
Tes - Эффективная температура на солнце - температура, которую ощущает человек, с поправкой на солнечный нагрев. Характеристика знойности погоды. Зависит от высоты солнца над горизонтом, облачности и скорости ветра. Ночью, в пасмурную погоду, а также при ветре 12 м/с и более поправка равна нулю.
P - Атмосферное давление - приведенное к уровню моря атмосферное давление.
Po - Атмосферное давление - измеренное на уровне метеостанции атмосферное давление.
Tmin - Минимальная температура - минимум температуры воздуха на высоте 2 м над землей.
Tmax - Максимальная температура - максимум температуры воздуха на высоте 2 м над землей.
R - Количество осадков - Количество выпавших осадков за период времени, мм. При наведении курсора мыши на число - период времени, за который выпало указанное количество осадков.
R24 - Количество осадков - Количество выпавших осадков за 24 часа, мм.
S - Снежный покров - Высота снежного покрова, см. При наведении курсора мыши на число - состояние снежного покрова и степень покрытия местности в баллах.